Time,TemperatureF,DewpointF,PressureIn,WindDirection,WindDirectionDegrees,WindSpeedMPH,WindSpeedGustMPH,Humidity,HourlyPrecipIn,Conditions,Clouds,dailyrainin,SoftwareType,DateUTC
2013-06-10 00:00:00,49.8,0.0,29.90,North,0,0.0,0.0,0,0.00,,,0.00,WUHU216HW,2013-06-10 07:00:00,
2013-06-10 00:05:00,49.8,0.0,29.90,North,0,0.0,0.0,0,0.00,,,0.00,WUHU216HW,2013-06-10 07:05:00,
2013-06-10 00:10:00,49.8,0.0,29.90,North,0,0.0,0.0,0,0.00,,,0.00,WUHU216HW,2013-06-10 07:10:00,
2013-06-10 00:15:00,49.8,0.0,29.89,North,0,0.0,0.0,0,0.00,,,0.00,WUHU216HW,2013-06-10 07:15:00,
2013-06-10 00:20:00,49.6,0.0,29.90,North,0,0.0,0.0,0,0.00,,,0.00,WUHU216HW,2013-06-10 07:20:00,
2013-06-10 00:25:00,49.6,0.0,29.90,North,0,0.0,0.0,0,0.00,,,0.00,WUHU216HW,2013-06-10 07:25:00,
2013-06-10 00:30:00,49.6,0.0,29.90,North,0,0.0,0.0,0,0.00,,,0.00,WUHU216HW,2013-06-10 07:30:00,
2013-06-10 00:35:00,49.6,0.0,29.90,North,0,0.0,0.0,0,0.00,,,0.00,WUHU216HW,2013-06-10 07:35:00,
2013-06-10 00:40:00,49.6,0.0,29.91,North,0,0.0,0.0,0,0.00,,,0.00,WUHU216HW,2013-06-10 07:40:00,
2013-06-10 15:17:00,53.3,0.0,29.97,North,0,0.0,0.0,0,0.00,,,0.00,WUHU216HW,2013-06-10 22:17:00,
2013-06-10 15:22:00,53.1,0.0,29.96,North,0,0.0,0.0,0,0.00,,,0.00,WUHU216HW,2013-06-10 22:22:00,
2013-06-10 15:27:00,53.3,0.0,29.96,North,0,0.0,0.0,0,0.00,,,0.00,WUHU216HW,2013-06-10 22:27:00,
2013-06-10 15:32:00,53.3,0.0,29.96,North,0,0.0,0.0,0,0.00,,,0.00,WUHU216HW,2013-06-10 22:32:00,
2013-06-10 15:37:00,53.3,0.0,29.96,North,0,0.0,0.0,0,0.00,,,0.00,WUHU216HW,2013-06-10 22:37:00,
2013-06-10 15:42:00,53.5,0.0,29.97,North,0,0.0,0.0,0,0.00,,,0.00,WUHU216HW,2013-06-10 22:42:00,
2013-06-10 15:47:00,53.1,0.0,29.97,North,0,0.0,0.0,0,0.00,,,0.00,WUHU216HW,2013-06-10 22:47:00,
2013-06-10 15:52:00,53.1,0.0,29.97,North,0,0.0,0.0,0,0.00,,,0.00,WUHU216HW,2013-06-10 22:52:00,
2013-06-10 15:57:00,53.3,0.0,29.97,North,0,0.0,0.0,0,0.00,,,0.00,WUHU216HW,2013-06-10 22:57:00,
2013-06-10 16:02:00,53.2,0.0,29.98,North,0,0.0,0.0,0,0.00,,,0.00,WUHU216HW,2013-06-10 23:02:00,
2013-06-10 16:07:00,53.2,0.0,29.98,North,0,0.0,0.0,0,0.00,,,0.00,WUHU216HW,2013-06-10 23:07:00,
2013-06-10 16:12:00,53.0,0.0,29.98,North,0,0.0,0.0,0,0.00,,,0.00,WUHU216HW,2013-06-10 23:12:00,
2013-06-10 16:17:00,53.2,0.0,29.98,North,0,0.0,0.0,0,0.00,,,0.00,WUHU216HW,2013-06-10 23:17:00,
2013-06-10 16:22:00,53.0,0.0,29.98,North,0,0.0,0.0,0,0.00,,,0.00,WUHU216HW,2013-06-10 23:22:00,
2013-06-10 16:27:00,53.0,0.0,29.98,North,0,0.0,0.0,0,0.00,,,0.00,WUHU216HW,2013-06-10 23:27:00,
2013-06-10 16:33:00,52.8,0.0,29.98,North,0,0.0,0.0,0,0.00,,,0.00,WUHU216HW,2013-06-10 23:33:00,
2013-06-10 16:38:00,53.0,0.0,29.98,North,0,0.0,0.0,0,0.00,,,0.00,WUHU216HW,2013-06-10 23:38:00,
2013-06-10 16:43:00,52.8,0.0,29.98,North,0,0.0,0.0,0,0.00,,,0.00,WUHU216HW,2013-06-10 23:43:00,
2013-06-10 16:48:00,53.0,0.0,29.98,North,0,0.0,0.0,0,0.00,,,0.00,WUHU216HW,2013-06-10 23:48:00,
2013-06-10 16:53:00,52.8,0.0,29.98,North,0,0.0,0.0,0,0.00,,,0.00,WUHU216HW,2013-06-10 23:53:00,
2013-06-10 16:58:00,52.7,0.0,29.98,North,0,0.0,0.0,0,0.00,,,0.00,WUHU216HW,2013-06-10 23:58:00,
2013-06-10 17:03:00,52.9,0.0,29.98,North,0,0.0,0.0,0,0.00,,,0.00,WUHU216HW,2013-06-11 00:03:00,
2013-06-10 17:08:00,52.9,0.0,29.98,North,0,0.0,0.0,0,0.00,,,0.00,WUHU216HW,2013-06-11 00:08:00,
2013-06-10 17:13:00,53.1,0.0,29.98,North,0,0.0,0.0,0,0.00,,,0.00,WUHU216HW,2013-06-11 00:13:00,
2013-06-10 17:18:00,52.9,0.0,29.98,North,0,0.0,0.0,0,0.00,,,0.00,WUHU216HW,2013-06-11 00:18:00,
2013-06-10 17:23:00,52.9,0.0,29.98,North,0,0.0,0.0,0,0.00,,,0.00,WUHU216HW,2013-06-11 00:23:00,
2013-06-10 17:28:00,52.9,0.0,29.98,North,0,0.0,0.0,0,0.00,,,0.00,WUHU216HW,2013-06-11 00:28:00,
2013-06-10 17:33:00,52.8,0.0,29.98,North,0,0.0,0.0,0,0.00,,,0.00,WUHU216HW,2013-06-11 00:33:00,
2013-06-10 17:38:00,52.8,0.0,29.98,North,0,0.0,0.0,0,0.00,,,0.00,WUHU216HW,2013-06-11 00:38:00,
2013-06-10 17:43:00,52.8,0.0,29.98,North,0,0.0,0.0,0,0.00,,,0.00,WUHU216HW,2013-06-11 00:43:00,
2013-06-10 17:48:00,53.0,0.0,29.98,North,0,0.0,0.0,0,0.00,,,0.00,WUHU216HW,2013-06-11 00:48:00,
2013-06-10 17:54:00,52.8,0.0,29.98,North,0,0.0,0.0,0,0.00,,,0.00,WUHU216HW,2013-06-11 00:54:00,
2013-06-10 17:59:00,52.8,0.0,29.98,North,0,0.0,0.0,0,0.00,,,0.00,WUHU216HW,2013-06-11 00:59:00,
2013-06-10 18:04:00,52.8,0.0,29.98,North,0,0.0,0.0,0,0.00,,,0.00,WUHU216HW,2013-06-11 01:04:00,
2013-06-10 18:09:00,52.5,0.0,29.98,North,0,0.0,0.0,0,0.00,,,0.00,WUHU216HW,2013-06-11 01:09:00,
2013-06-10 18:14:00,52.5,0.0,29.98,North,0,0.0,0.0,0,0.00,,,0.00,WUHU216HW,2013-06-11 01:14:00,
2013-06-10 18:19:00,52.5,0.0,29.98,North,0,0.0,0.0,0,0.00,,,0.00,WUHU216HW,2013-06-11 01:19:00,
2013-06-10 18:24:00,52.5,0.0,29.98,North,0,0.0,0.0,0,0.00,,,0.00,WUHU216HW,2013-06-11 01:24:00,
2013-06-10 18:29:00,52.5,0.0,29.98,North,0,0.0,0.0,0,0.00,,,0.00,WUHU216HW,2013-06-11 01:29:00,
2013-06-10 18:34:00,52.4,0.0,29.97,North,0,0.0,0.0,0,0.00,,,0.00,WUHU216HW,2013-06-11 01:34:00,
2013-06-10 18:39:00,52.4,0.0,29.97,North,0,0.0,0.0,0,0.00,,,0.00,WUHU216HW,2013-06-11 01:39:00,
2013-06-10 18:44:00,52.4,0.0,29.97,North,0,0.0,0.0,0,0.00,,,0.00,WUHU216HW,2013-06-11 01:44:00,
2013-06-10 18:49:00,52.6,0.0,29.97,North,0,0.0,0.0,0,0.00,,,0.00,WUHU216HW,2013-06-11 01:49:00,
2013-06-10 18:54:00,52.6,0.0,29.97,North,0,0.0,0.0,0,0.00,,,0.00,WUHU216HW,2013-06-11 01:54:00,
2013-06-10 19:00:00,52.4,0.0,29.97,North,0,0.0,0.0,0,0.00,,,0.00,WUHU216HW,2013-06-11 02:00:00,
2013-06-10 19:05:00,52.3,0.0,29.97,North,0,0.0,0.0,0,0.00,,,0.00,WUHU216HW,2013-06-11 02:05:00,
2013-06-10 19:10:00,52.3,0.0,29.97,North,0,0.0,0.0,0,0.00,,,0.00,WUHU216HW,2013-06-11 02:10:00,
2013-06-10 19:15:00,52.1,0.0,29.97,North,0,0.0,0.0,0,0.00,,,0.00,WUHU216HW,2013-06-11 02:15:00,
2013-06-10 19:20:00,52.3,0.0,29.97,North,0,0.0,0.0,0,0.00,,,0.00,WUHU216HW,2013-06-11 02:20:00,
2013-06-10 19:25:00,52.1,0.0,29.97,North,0,0.0,0.0,0,0.00,,,0.00,WUHU216HW,2013-06-11 02:25:00,
2013-06-10 20:52:00,50.5,0.0,29.97,North,0,0.0,0.0,0,0.00,,,0.00,WUHU216HW,2013-06-11 03:52:00,
2013-06-10 20:57:00,50.5,0.0,29.98,North,0,0.0,0.0,0,0.00,,,0.00,WUHU216HW,2013-06-11 03:57:00,
2013-06-10 21:01:00,50.5,0.0,29.97,North,0,0.0,0.0,0,0.00,,,0.00,WUHU216HW,2013-06-11 04:01:00,
2013-06-10 21:02:00,50.5,0.0,29.97,North,0,0.0,0.0,0,0.00,,,0.00,WUHU216HW,2013-06-11 04:02:00,
2013-06-10 21:03:00,50.5,0.0,29.97,North,0,0.0,0.0,0,0.00,,,0.00,WUHU216HW,2013-06-11 04:03:00,
2013-06-10 21:08:00,50.5,0.0,29.97,North,0,0.0,0.0,0,0.00,,,0.00,WUHU216HW,2013-06-11 04:08:00,
2013-06-10 21:13:00,50.5,0.0,29.97,North,0,0.0,0.0,0,0.00,,,0.00,WUHU216HW,2013-06-11 04:13:00,
2013-06-10 21:18:00,50.4,0.0,29.97,North,0,0.0,0.0,0,0.00,,,0.00,WUHU216HW,2013-06-11 04:18:00,
2013-06-10 21:23:00,50.4,0.0,29.97,North,0,0.0,0.0,0,0.00,,,0.00,WUHU216HW,2013-06-11 04:23:00,
2013-06-10 21:28:00,50.3,0.0,29.98,North,0,0.0,0.0,0,0.00,,,0.00,WUHU216HW,2013-06-11 04:28:00,
2013-06-10 21:33:00,50.3,0.0,29.98,North,0,0.0,0.0,0,0.00,,,0.00,WUHU216HW,2013-06-11 04:33:00,
2013-06-10 21:39:00,50.1,0.0,29.98,North,0,0.0,0.0,0,0.00,,,0.00,WUHU216HW,2013-06-11 04:39:00,
2013-06-10 21:44:00,50.0,0.0,29.98,North,0,0.0,0.0,0,0.00,,,0.00,WUHU216HW,2013-06-11 04:44:00,
2013-06-10 21:49:00,50.0,0.0,29.98,North,0,0.0,0.0,0,0.00,,,0.00,WUHU216HW,2013-06-11 04:49:00,
2013-06-10 21:54:00,50.0,0.0,29.98,North,0,0.0,0.0,0,0.00,,,0.00,WUHU216HW,2013-06-11 04:54:00,
2013-06-10 21:59:00,50.0,0.0,29.99,North,0,0.0,0.0,0,0.00,,,0.00,WUHU216HW,2013-06-11 04:59:00,
2013-06-10 22:05:00,50.2,0.0,29.99,North,0,0.0,0.0,0,0.00,,,0.00,WUHU216HW,2013-06-11 05:05:00,
2013-06-10 22:10:00,50.2,0.0,29.99,North,0,0.0,0.0,0,0.00,,,0.00,WUHU216HW,2013-06-11 05:10:00,
2013-06-10 22:15:00,50.1,0.0,29.99,North,0,0.0,0.0,0,0.00,,,0.00,WUHU216HW,2013-06-11 05:15:00,
2013-06-10 22:20:00,50.1,0.0,29.99,North,0,0.0,0.0,0,0.00,,,0.00,WUHU216HW,2013-06-11 05:20:00,
2013-06-10 22:25:00,50.1,0.0,30.00,North,0,0.0,0.0,0,0.00,,,0.00,WUHU216HW,2013-06-11 05:25:00,
2013-06-10 22:30:00,50.1,0.0,30.00,North,0,0.0,0.0,0,0.00,,,0.00,WUHU216HW,2013-06-11 05:30:00,
2013-06-10 22:35:00,50.1,0.0,30.00,North,0,0.0,0.0,0,0.00,,,0.00,WUHU216HW,2013-06-11 05:35:00,
2013-06-10 22:40:00,50.1,0.0,30.00,North,0,0.0,0.0,0,0.00,,,0.00,WUHU216HW,2013-06-11 05:40:00,
2013-06-10 22:56:00,50.0,0.0,29.99,North,0,0.0,0.0,0,0.00,,,0.00,WUHU216HW,2013-06-11 05:56:00,
2013-06-10 23:01:00,50.1,0.0,29.99,North,0,0.0,0.0,0,0.00,,,0.00,WUHU216HW,2013-06-11 06:01:00,
2013-06-10 23:06:00,50.1,0.0,29.99,North,0,0.0,0.0,0,0.00,,,0.00,WUHU216HW,2013-06-11 06:06:00,
2013-06-10 23:11:00,50.1,0.0,29.99,North,0,0.0,0.0,0,0.00,,,0.00,WUHU216HW,2013-06-11 06:11:00,
2013-06-10 23:16:00,50.3,0.0,29.99,North,0,0.0,0.0,0,0.00,,,0.00,WUHU216HW,2013-06-11 06:16:00,
2013-06-10 23:21:00,50.2,0.0,29.99,North,0,0.0,0.0,0,0.00,,,0.00,WUHU216HW,2013-06-11 06:21:00,
2013-06-10 23:27:00,50.2,0.0,29.99,North,0,0.0,0.0,0,0.00,,,0.00,WUHU216HW,2013-06-11 06:27:00,
2013-06-10 23:32:00,50.2,0.0,29.99,North,0,0.0,0.0,0,0.00,,,0.00,WUHU216HW,2013-06-11 06:32:00,
2013-06-10 23:37:00,50.2,0.0,29.99,North,0,0.0,0.0,0,0.00,,,0.00,WUHU216HW,2013-06-11 06:37:00,
2013-06-10 23:42:00,50.2,0.0,29.99,North,0,0.0,0.0,0,0.00,,,0.00,WUHU216HW,2013-06-11 06:42:00,
2013-06-10 23:47:00,50.4,0.0,29.99,North,0,0.0,0.0,0,0.00,,,0.00,WUHU216HW,2013-06-11 06:47:00,
2013-06-10 23:52:00,50.4,0.0,29.99,North,0,0.0,0.0,0,0.00,,,0.00,WUHU216HW,2013-06-11 06:52:00,
2013-06-10 23:57:00,50.4,0.0,29.99,North,0,0.0,0.0,0,0.00,,,0.00,WUHU216HW,2013-06-11 06:57:00,